Flag for U.S.A. Weather past 2 weeks in Ann Arbor, Michigan, U.S.A.

Now
48 °F

Overcast.


Feels Like: 43 °F
Forecast: 38 / 56 °F
Wind: 10 mph from Northeast

Location: Ann Arbor Municipal Airport

Current Time: Oct 22, 2014 at 12:39:46 PM

Latest Report: Oct 22, 2014 at 11:53 AM


Visibility: 10 mi

Pressure: 30.36 "Hg

Humidity: 68%

Dew point: 38 °F

Location of Ann ArborLocation

Historic Weather in Ann Arbor — Graph

°F

Ann Arbor temperature yesterday

Maximum temperature yesterday: 49 °F (at 12:53 AM)
Minimum temperature yesterday: 44 °F (at 8:53 PM)
Average temperature yesterday: 47 °F

Past Weeks' High & Low Weather Summary

 TemperatureHumidityPressure
High71 °F (Oct 13, 4:53 PM)96% (Oct 12, 4:53 AM)30.35 "Hg (Oct 12, 4:53 AM)
Low25 °F (Oct 19, 7:53 AM)28% (Oct 8, 4:53 PM)29.51 "Hg (Oct 17, 1:53 PM)
Average51 °F73%29.93 "Hg
* Reported Oct 7 10:53 AM — Oct 22 10:53 AM, Ann Arbor, Weather by CustomWeather, © 2014

Note: Actual official high and low records may vary slightly from our data, if they occured in-between our weather recording intervals... More about our weather records

Advertising

Ann Arbor weather history for previous 24 hours

 ConditionsComfort  
Time TempWeatherWind HumidityBarometerVisibility
10:53 AM
Oct 22
46 °FOvercast.9 mph71%30.35 "Hg10 mi
9:53 AM45 °FOvercast.8 mph74%30.34 "Hg10 mi
8:53 AM45 °FOvercast.9 mph74%30.33 "Hg10 mi
7:53 AM44 °FOvercast.8 mph73%30.30 "Hg10 mi
6:53 AM43 °FPassing clouds.7 mph74%30.29 "Hg10 mi
5:53 AM44 °FOvercast.12 mph73%30.27 "Hg10 mi
4:53 AM44 °FOvercast.9 mph73%30.26 "Hg10 mi
3:53 AM44 °FOvercast.9 mph73%30.24 "Hg10 mi
2:53 AM44 °FOvercast.8 mph71%30.23 "Hg10 mi
1:53 AM44 °FOvercast.14 mph71%30.23 "Hg10 mi
1:02 AM44 °FMostly cloudy.9 mph68%30.22 "Hg10 mi
12:53 AM44 °FMostly cloudy.12 mph71%30.23 "Hg10 mi
11:53 PM
Oct 21
44 °FOvercast.13 mph68%30.23 "Hg10 mi
10:53 PM44 °FOvercast.12 mph68%30.23 "Hg10 mi
9:53 PM44 °FOvercast.12 mph68%30.22 "Hg10 mi
8:53 PM44 °FOvercast.10 mph68%30.19 "Hg10 mi
7:53 PM45 °FOvercast.14 mph68%30.18 "Hg10 mi
6:53 PM45 °FOvercast.17 mph68%30.16 "Hg10 mi
5:53 PM45 °FOvercast.17 mph68%30.14 "Hg10 mi
4:53 PM45 °FOvercast.14 mph71%30.12 "Hg10 mi
3:53 PM46 °FMore clouds than sun.17 mph68%30.10 "Hg10 mi
2:53 PM47 °FMostly cloudy.16 mph69%30.09 "Hg10 mi
1:53 PM47 °FOvercast.17 mph69%30.07 "Hg10 mi
12:53 PM47 °FMostly cloudy.12 mph71%30.06 "Hg10 mi
Weather by CustomWeather, © 2014

See weather overviewHow to use our weather pages